Stolt Effort — ZCSP6 — position and weather

sailwx.info

Track history (hours):
 
Tides and Currents Weather Stations Pressure Air Temp Water Temp Dewpoint Dewpoint Depression Visibility Wind Speed Wind Dir Waves Ship Positions

Stolt Effort

Last reported at 2014-Oct-30 17:33 UTC. Time now 2014-Oct-31 05:44 UTC.
Position N 29°45' W 095°06'.

Length 176 m; draft 11.1 m.

Type: Ship (hazmat cat B). MMSI: 319445000.

Date/timePositionNaut miles runAvg speedWind from/ knotsBaromVisibWave heightAir tempDewpointWater temp
2014-Oct-30 17:33N 29°45' W 095°06'4 4.4
2014-Oct-30 16:33N 29°43' W 095°01'7 7.4
2014-Oct-30 15:33N 29°37' W 094°57'1010.0
2014-Oct-30 14:33N 29°28' W 094°51'19 0.5
2014-Oct-29 03:33N 29°13' W 094°38'11 0.4
2014-Oct-27 23:33N 29°21' W 094°47'1212.0
2014-Oct-27 22:33N 29°32' W 094°53'1111.2
2014-Oct-27 21:33N 29°42' W 094°59'7 6.6
2014-Oct-27 20:33N 29°45' W 095°06'0 0.0
2014-Oct-27 04:29N 29°45' W 095°06'4 4.5
2014-Oct-27 03:33N 29°44' W 095°01'1111.0
2014-Oct-27 02:34N 29°34' W 094°55'1414.0
2014-Oct-27 01:32N 29°21' W 094°47'11 0.6
2014-Oct-26 06:31N 29°14' W 094°38'0 0.0
2014-Oct-26 04:10N 29°14' W 094°38'0 0.0
2014-Oct-26 03:28N 29°14' W 094°38'0 0.0
2014-Oct-25 15:28N 29°14' W 094°38'0 0.0
2014-Oct-25 14:28N 29°14' W 094°38'0 0.0
2014-Oct-25 08:28N 29°14' W 094°38'0 0.0
2014-Oct-25 07:04N 29°14' W 094°38'14 0.4
2014-Oct-23 22:33N 29°24' W 094°49'1211.5
2014-Oct-23 21:33N 29°34' W 094°55'6 5.7
2014-Oct-23 20:33N 29°37' W 095°01'0 0.0
2014-Oct-23 19:31N 29°37' W 095°01'0 0.0
2014-Oct-23 18:31N 29°37' W 095°01'0 0.0
2014-Oct-23 17:31N 29°37' W 095°01'0 0.0
2014-Oct-23 16:31N 29°37' W 095°01'0 0.0
2014-Oct-23 15:28N 29°37' W 095°01'0 0.0
2014-Oct-23 14:31N 29°37' W 095°01'0 0.0
2014-Oct-23 13:25N 29°37' W 095°01'0 0.0
2014-Oct-23 12:31N 29°37' W 095°01'0 0.0
2014-Oct-23 11:31N 29°37' W 095°01'0 0.0
2014-Oct-23 10:31N 29°37' W 095°01'0 0.0
2014-Oct-23 09:31N 29°37' W 095°01'0 0.0
2014-Oct-23 08:31N 29°37' W 095°01'0 0.0
2014-Oct-23 07:28N 29°37' W 095°01'0 0.0
2014-Oct-23 06:28N 29°37' W 095°01'0 0.0
2014-Oct-23 05:31N 29°37' W 095°01'0 0.0
2014-Oct-23 04:31N 29°37' W 095°01'0 0.0
2014-Oct-23 03:31N 29°37' W 095°01'0 0.0
2014-Oct-23 02:31N 29°37' W 095°01'0 0.0
2014-Oct-23 01:31N 29°37' W 095°01'0 0.0
2014-Oct-23 00:31N 29°37' W 095°01'0 0.0
2014-Oct-22 23:31N 29°37' W 095°01'0 0.0
2014-Oct-22 22:31N 29°37' W 095°01'0 0.0
2014-Oct-22 21:31N 29°37' W 095°01'0 0.0
2014-Oct-22 20:31N 29°37' W 095°01'0 0.0
2014-Oct-22 19:31N 29°37' W 095°01'0 0.0
2014-Oct-22 18:31N 29°37' W 095°01'0 0.0
2014-Oct-22 17:31N 29°37' W 095°01'0 0.0
2014-Oct-22 16:31N 29°37' W 095°01'0 0.0
2014-Oct-22 15:31N 29°37' W 095°01'0 0.0
2014-Oct-22 14:28N 29°37' W 095°01'0 0.0
2014-Oct-22 13:31N 29°37' W 095°01'0 0.0
2014-Oct-22 12:31N 29°37' W 095°01'0 0.0
2014-Oct-22 11:31N 29°37' W 095°01'0 0.0
2014-Oct-22 10:31N 29°37' W 095°01'0 0.0
2014-Oct-22 09:31N 29°37' W 095°01'0 0.0
2014-Oct-22 08:31N 29°37' W 095°01'0 0.0
2014-Oct-22 07:31N 29°37' W 095°01'0 0.0
2014-Oct-22 06:31N 29°37' W 095°01'0 0.0
2014-Oct-22 05:31N 29°37' W 095°01'0 0.0
2014-Oct-22 04:28N 29°37' W 095°01'0 0.0
2014-Oct-22 03:28N 29°37' W 095°01'0 0.0
2014-Oct-22 02:28N 29°37' W 095°01'0 0.0
2014-Oct-22 01:28N 29°37' W 095°01'3 3.6
2014-Oct-22 00:33N 29°37' W 094°57'9 9.3
2014-Oct-21 23:33N 29°45' W 095°04'6 6.2
2014-Oct-21 22:33N 29°45' W 095°11'5 4.6
2014-Oct-21 21:33N 29°44' W 095°16'1 1.2
2014-Oct-21 20:33N 29°44' W 095°17'8 0.4
2014-Oct-21 01:28N 29°44' W 095°08'0 0.3
2014-Oct-21 00:33N 29°44' W 095°08'0 0.0
2014-Oct-20 23:29N 29°44' W 095°08'0 0.0
2014-Oct-20 22:32N 29°44' W 095°08'0 0.0
2014-Oct-20 21:32N 29°44' W 095°08'0 0.0
2014-Oct-20 20:17N 29°44' W 095°08'0 0.0
2014-Oct-20 19:26N 29°44' W 095°08'0 0.0
2014-Oct-20 18:05N 29°44' W 095°08'  
Track history (hours):
 
Tides and Currents Weather Stations Pressure Air Temp Water Temp Dewpoint Dewpoint Depression Visibility Wind Speed Wind Dir Waves Ship Positions

Stolt Effort

Last reported at 2014-Oct-30 17:33 UTC. Time now 2014-Oct-31 05:44 UTC.
Position N 29°45' W 095°06'.

Length 176 m; draft 11.1 m.

Type: Ship (hazmat cat B). MMSI: 319445000.

Date/timePositionNaut miles runAvg speedWind from/ knotsBaromVisibWave heightAir tempDewpointWater temp
2014-Oct-30 17:33N 29°45' W 095°06'4 4.4
2014-Oct-30 16:33N 29°43' W 095°01'7 7.4
2014-Oct-30 15:33N 29°37' W 094°57'1010.0
2014-Oct-30 14:33N 29°28' W 094°51'19 0.5
2014-Oct-29 03:33N 29°13' W 094°38'11 0.4
2014-Oct-27 23:33N 29°21' W 094°47'1212.0
2014-Oct-27 22:33N 29°32' W 094°53'1111.2
2014-Oct-27 21:33N 29°42' W 094°59'7 6.6
2014-Oct-27 20:33N 29°45' W 095°06'0 0.0
2014-Oct-27 04:29N 29°45' W 095°06'4 4.5
2014-Oct-27 03:33N 29°44' W 095°01'1111.0
2014-Oct-27 02:34N 29°34' W 094°55'1414.0
2014-Oct-27 01:32N 29°21' W 094°47'11 0.6
2014-Oct-26 06:31N 29°14' W 094°38'0 0.0
2014-Oct-26 04:10N 29°14' W 094°38'0 0.0
2014-Oct-26 03:28N 29°14' W 094°38'0 0.0
2014-Oct-25 15:28N 29°14' W 094°38'0 0.0
2014-Oct-25 14:28N 29°14' W 094°38'0 0.0
2014-Oct-25 08:28N 29°14' W 094°38'0 0.0
2014-Oct-25 07:04N 29°14' W 094°38'14 0.4
2014-Oct-23 22:33N 29°24' W 094°49'1211.5
2014-Oct-23 21:33N 29°34' W 094°55'6 5.7
2014-Oct-23 20:33N 29°37' W 095°01'0 0.0
2014-Oct-23 19:31N 29°37' W 095°01'0 0.0
2014-Oct-23 18:31N 29°37' W 095°01'0 0.0
2014-Oct-23 17:31N 29°37' W 095°01'0 0.0
2014-Oct-23 16:31N 29°37' W 095°01'0 0.0
2014-Oct-23 15:28N 29°37' W 095°01'0 0.0
2014-Oct-23 14:31N 29°37' W 095°01'0 0.0
2014-Oct-23 13:25N 29°37' W 095°01'0 0.0
2014-Oct-23 12:31N 29°37' W 095°01'0 0.0
2014-Oct-23 11:31N 29°37' W 095°01'0 0.0
2014-Oct-23 10:31N 29°37' W 095°01'0 0.0
2014-Oct-23 09:31N 29°37' W 095°01'0 0.0
2014-Oct-23 08:31N 29°37' W 095°01'0 0.0
2014-Oct-23 07:28N 29°37' W 095°01'0 0.0
2014-Oct-23 06:28N 29°37' W 095°01'0 0.0
2014-Oct-23 05:31N 29°37' W 095°01'0 0.0
2014-Oct-23 04:31N 29°37' W 095°01'0 0.0
2014-Oct-23 03:31N 29°37' W 095°01'0 0.0
2014-Oct-23 02:31N 29°37' W 095°01'0 0.0
2014-Oct-23 01:31N 29°37' W 095°01'0 0.0
2014-Oct-23 00:31N 29°37' W 095°01'0 0.0
2014-Oct-22 23:31N 29°37' W 095°01'0 0.0
2014-Oct-22 22:31N 29°37' W 095°01'0 0.0
2014-Oct-22 21:31N 29°37' W 095°01'0 0.0
2014-Oct-22 20:31N 29°37' W 095°01'0 0.0
2014-Oct-22 19:31N 29°37' W 095°01'0 0.0
2014-Oct-22 18:31N 29°37' W 095°01'0 0.0
2014-Oct-22 17:31N 29°37' W 095°01'0 0.0
2014-Oct-22 16:31N 29°37' W 095°01'0 0.0
2014-Oct-22 15:31N 29°37' W 095°01'0 0.0
2014-Oct-22 14:28N 29°37' W 095°01'0 0.0
2014-Oct-22 13:31N 29°37' W 095°01'0 0.0
2014-Oct-22 12:31N 29°37' W 095°01'0 0.0
2014-Oct-22 11:31N 29°37' W 095°01'0 0.0
2014-Oct-22 10:31N 29°37' W 095°01'0 0.0
2014-Oct-22 09:31N 29°37' W 095°01'0 0.0
2014-Oct-22 08:31N 29°37' W 095°01'0 0.0
2014-Oct-22 07:31N 29°37' W 095°01'0 0.0
2014-Oct-22 06:31N 29°37' W 095°01'0 0.0
2014-Oct-22 05:31N 29°37' W 095°01'0 0.0
2014-Oct-22 04:28N 29°37' W 095°01'0 0.0
2014-Oct-22 03:28N 29°37' W 095°01'0 0.0
2014-Oct-22 02:28N 29°37' W 095°01'0 0.0
2014-Oct-22 01:28N 29°37' W 095°01'3 3.6
2014-Oct-22 00:33N 29°37' W 094°57'9 9.3
2014-Oct-21 23:33N 29°45' W 095°04'6 6.2
2014-Oct-21 22:33N 29°45' W 095°11'5 4.6
2014-Oct-21 21:33N 29°44' W 095°16'1 1.2
2014-Oct-21 20:33N 29°44' W 095°17'8 0.4
2014-Oct-21 01:28N 29°44' W 095°08'0 0.3
2014-Oct-21 00:33N 29°44' W 095°08'0 0.0
2014-Oct-20 23:29N 29°44' W 095°08'0 0.0
2014-Oct-20 22:32N 29°44' W 095°08'0 0.0
2014-Oct-20 21:32N 29°44' W 095°08'0 0.0
2014-Oct-20 20:17N 29°44' W 095°08'0 0.0
2014-Oct-20 19:26N 29°44' W 095°08'0 0.0
2014-Oct-20 18:05N 29°44' W 095°08'  

Dump ship's entire track history